Location: Crocus Hill
(18.2167°N, 63.0667°W)
Time: 15:00:04
(UTC+00:00)

USA 238 - Pass Details

Date: 26 January 2020
Orbit: 1023 x 1189 km, 63.4° (Epoch: 20 February)

Event Time Altitude Azimuth Distance (km) Brightness Sun altitude
Exits shadow 09:32:04 10° 333° (NNW) 3,102 5.7 -17.8°
Reaches altitude 10° 09:32:11 10° 333° (NNW) 3,065 5.7 -17.8°
Maximum altitude 09:39:35 85° 245° (WSW) 1,188 3.9 -16.1°
Drops below altitude 10° 09:47:05 10° 158° (SSE) 3,108 6.6 -14.3°
Sets 09:49:49 0° 158° (SSE) 4,068 7.3 -13.7°
